Location: Rometta
(44.2000°N, 10.0500°E)
Time: 11:48:42
(UTC+00:00)

Cosmos 1818 - Pass Details

Date: 23 May 2021
Orbit: 771 x 802 km, 65.0° (Epoch: 15 June)

Event Time Altitude Azimuth Distance (km) Brightness Sun altitude
Rises 19:28:56 0° 324° (NW) 3,320 8.6 -6.8°
Reaches altitude 10° 19:31:22 10° 323° (NW) 2,386 7.6 -7.2°
Maximum altitude 19:36:52 78° 238° (WSW) 823 3.7 -7.9°
Drops below altitude 10° 19:42:18 10° 153° (SSE) 2,362 5.5 -8.7°
Enters shadow 19:42:37 - 153° (SSE) 2,485 5.6 -8.7°
